Location: Shepherdstown, WV
(39.4326°N, 77.8042°W)
Time: 10:29:57
(UTC-04:00)

Tiangong - Pass Details

Date: 24 June 2021
Orbit: 374 x 386 km, 41.5° (Epoch: 25 July)

Event Time Altitude Azimuth Distance (km) Brightness Sun altitude
Exits shadow 04:04:22 26° 275° (W) 775 2.3 -15.6°
Maximum altitude 04:05:54 66° 351° (N) 415 1.3 -15.4°
Drops below altitude 10° 04:09:01 10° 75° (ENE) 1,393 4.8 -15.0°
Sets 04:11:07 0° 78° (ENE) 2,249 5.9 -14.7°
